Погода в Папоротке

Россия / Тульская область     53°37′55″N   38°21′15″E
темп.,
°C
ветер,
м/с
пор.,
м/с
влажн.,
%
обл.,
%
осадки,
мм/ч
давл.,
гПа
погр.,
м
7 мая, пт
пт700:00+8зюз2490100 2.1 1010251
03:00+7зюз3591100 2.3 1011147
06:00+7зсз3791100 0.2 1011303
09:00+10зсз466198 0.2 1012796
12:00+12з56475 0.0 10131815
15:00+13з453813 0.0 10142160
18:00+13юз3451100 0.0 1014361
21:00+9ююв466194 0.0 101494
8 мая, сб
сб800:00+8ююв51264100 0.0 1014239
03:00+9ююв71660100 0.0 1012518
06:00+9ююв71777100 0.1 1010724
09:00+8ююв101991100 7.2 1008769
12:00+10ююв101890100 3.3 1005982
15:00+10ю91594100 10.7 10041026
18:00+12ююз61184100 0.2 1004936
21:00+8зюз71487100 0.3 1005726
9 мая, вс
вс900:00+6зюз81290100 0.1 1006980
03:00+3зсз81696100 0.4 1009923
06:00+5зсз81284100 0.1 1012955
09:00+5сз71076100 0.1 10151055
12:00+6сз7870100 0.0 10181176
15:00+7сз6972100 0.0 10201116
18:00+9ссз410665 0.0 10211417
21:00+5сз411765 0.0 1023201
10 мая, пн
пн1000:00+4ссз49783 0.0 1025168
03:00+3ссз49810 0.0 1027151
06:00+4с39815 0.0 1029215
09:00+9ссв69615 0.0 1029853
12:00+12ссв68495 0.0 10291470
15:00+14ссв684988 0.0 10281462
18:00+13ссв58590 0.0 1029934
21:00+8с49750 0.0 1029145
11 мая, вт
вт1100:00+7св37800 0.0 1029136
03:00+6ссв36805 0.0 1030105
06:00+6св410805 0.0 1031254
09:00+11св611615 0.0 1030702
12:00+15св795111 0.0 10291048
15:00+16всв785154 0.0 10281254
18:00+15всв5864100 0.0 1028585
21:00+10св3679100 0.0 102889